Skip Navigation Links weather.gov 
NOAA logo-Select to go to the NOAA homepage NDBC Title GraphicClick to go to NDBC home page   Select to go to the NWS homepage
Home About Us Contact Us
 
 
    
    Station List

 Data Access
    Mobile Access
    Classic Maps
         Recent
         DART®
    Obs Search
    Ship Obs Report
    BuoyCAMs
    TAO
    DODS
    OceanSITES
    HF Radar
    OSMC
    Dial-A-Buoy
    RSS Feeds Image indicating link to RSS feed access page
    Web Widget
    Web Data Guide
    Maintenance Schedule
    Station Status Report

 Program Info
    TAO
    DART®
    IOOS®

 Publications
    NDBC PEA
    NDBC FONSI
    NDBC DQC Handbook

 Visitor Information
 
USA.gov is the U.S. government's official web portal to all federal, state and local government web resources and services.

Station WDSV2 - 8638614 - Willoughby Deguassing Station, VA Image indicating link to RSS feed of recent meteorological observations for station WDSV2

Owned and maintained by NOAA's National Ocean Service
C-MAN Station
36.977 N 76.315 W (36°58'38" N 76°18'56" W)

Air temp height: 2.9 m above site elevation

Latest NWS Marine Forecast

Search And Rescue (SAR) Data

Meteorological Observations from Nearby Stations and Ships Image indicating link to RSS feed of recent meteorological observations near station WDSV2

Regional HF Radar Surface Current Observations

Large icon indicates selected station.
yellow diamond Stations with recent data
red diamond Stations with no data in last 8 hours
     (24 hours for tsunami stations)


Conditions at WDSV2 as of
(9:30 pm EDT on 03/21/2019)
0130 GMT on 03/22/2019:
     

Click on the graph icon in the table below to see a time series plot of the last five days of that observation.

5-day plot - Wind Direction Wind Direction (WDIR): W ( 270 deg true )
5-day plot - Wind Speed Wind Speed (WSPD): 27 kts
5-day plot - Wind Gust Wind Gust (GST): 32 kts
5-day plot - Atmospheric Pressure Atmospheric Pressure (PRES): 29.60 in
5-day plot - Air Temperature Air Temperature (ATMP): 48.2 °F
5-day plot - Wind Chill Wind Chill (CHILL): 39.4 °F
5-day plot - Wind Speed at 10 Meters Wind Speed at 10 meters (WSPD10M): 27 kts
5-day plot - Wind Speed at 10 Meters Wind Speed at 20 meters (WSPD20M): 29 kts
5-day plot - Wind Speed, Wind Gust and Atmospheric Pressure Combined plot of Wind Speed, Gust, and Air Pressure
NOS Water Level Observation Network Water Level
Previous observations
5-day plot - Wind Direction 5-day plot - Wind Speed 5-day plot - Wind Gust 5-day plot - Wave Height 5-day plot - Dominant Wave Period 5-day plot - Average Period 5-day plot - Mean Wave Direction 5-day plot - Atmospheric Pressure 5-day plot - Pressure Tendency 5-day plot - Air Temperature 5-day plot - Water Temperature 5-day plot - Dew Point 5-day plot - Salinity 5-day plot - Visibility 5-day plot - Tide (above MLLW)
MM DD TIME
(EDT)
WDIR WSPD
kts
GST
kts
WVHT
ft
DPD
sec
APD
sec
MWD PRES
in
PTDY
in
ATMP
°F
WTMP
°F
DEWP
°F
SAL
psu
VIS
nmi
TIDE
ft
0321 9:24 pm W 24 29----29.59- 48.2-----
0321 9:18 pm W 22 32----29.59- 48.2-----
0321 9:12 pm W 24 29----29.59- 48.2-----
0321 9:06 pm W 25 30----29.59- 48.0-----
0321 9:00 pm W 23 27----29.59+0.06 48.0-----
0321 8:54 pm W 25 30----29.59- 47.8-----
0321 8:48 pm W 22 28----29.59- 47.7-----
0321 8:42 pm W 23 30----29.59- 47.5-----
0321 8:36 pm W 24 32----29.59- 47.3-----
0321 8:30 pm W 25 32----29.58- 46.9-----
0321 8:24 pm W 25 31----29.58- 47.1-----
0321 8:18 pm W 25 31----29.58- 47.1-----
0321 8:12 pm W 25 30----29.57- 47.3-----
0321 8:06 pm W 26 33----29.57- 47.1-----
0321 8:00 pm W 28 34----29.57+0.04------
0321 7:54 pm W 26 31----29.57- 46.9-----
0321 7:48 pm W 28 32----29.57- 46.9-----
0321 7:42 pm W 29 33----29.57- 46.8-----
0321 7:36 pm W 29 32----29.56- 46.9-----
0321 7:30 pm W 25 35----29.55- 46.9-----
0321 7:24 pm W 28 33----29.55- 46.9-----
0321 7:18 pm W 24 29----29.56- 47.1-----
0321 7:12 pm W 25 32----29.55- 47.1-----
0321 7:06 pm W 28 30----29.55- 47.1-----
0321 7:00 pm W 25 33----29.55+0.01 47.3-----
0321 6:54 pm W 29 33----29.55- 47.7-----
0321 6:48 pm W 27 32----29.54- 48.2-----
0321 6:42 pmWSW 27 30----29.54- 48.4-----
0321 6:36 pmWSW 26 29----29.54- 48.4-----
0321 6:30 pm W 23 28----29.54-------
0321 6:24 pmWSW 24 29----29.54- 48.9-----
0321 6:18 pmWSW 28 32----29.54- 48.9-----
0321 6:12 pmWSW 25 30----29.53- 49.1-----
0321 6:06 pmWSW 25 29----29.53- 49.3-----
0321 6:00 pmWSW 23 27----29.53-0.04 49.6-----
0321 5:54 pmWSW 24 28----29.53- 49.6-----
0321 5:48 pmWSW 22 26----29.52- 49.6-----
0321 5:42 pmWSW 18 24----29.53- 50.2-----
0321 5:36 pmWSW 18 21----29.52- 50.2-----
0321 5:30 pmWSW 19 22----29.52- 50.4-----
0321 5:24 pmWSW 19 23----29.52- 50.5-----
0321 5:18 pmWSW 19 23----29.52- 51.1-----
0321 5:12 pmWSW 18 23----29.52- 51.8-----
0321 5:06 pmWSW 20 28----29.52- 52.5-----
0321 5:00 pm SW 17 20----29.52-0.10 53.8-----
0321 4:54 pm SW 19 24----29.52- 54.9-----
0321 4:48 pm SW 21 23----29.52- 56.5-----
0321 4:42 pmSSW 17 20----29.52- 57.2-----
0321 4:36 pmSSW 17 20----29.52- 57.6-----
0321 4:30 pmSSW 14 19----29.52- 57.9-----
0321 4:24 pm S 16 18----29.52- 58.5-----
0321 4:18 pmSSW 13 17----29.53- 58.8-----
0321 4:12 pm S 15 18----29.53- 58.8-----
0321 4:06 pm S 11 16----29.54- 58.8-----
0321 4:00 pm S 14 16----29.54- 58.6-----
0321 3:54 pm S 14 16----29.54- 58.5-----
0321 3:48 pmSSW 14 16----29.54- 58.3-----
0321 3:42 pmSSW 14 18----29.55- 58.5-----
0321 3:36 pm S 15 19----29.55- 58.3-----
0321 3:30 pm S 15 20----29.56-------
0321 3:24 pm S 16 20----29.56- 58.1-----
0321 3:18 pm S 18 23----29.57- 58.3-----
0321 3:12 pm S 20 24----29.57- 58.1-----
0321 3:06 pm S 13 15----29.58- 58.3-----
0321 3:00 pm S 9 14----29.58-0.14 57.9-----
0321 2:54 pm S 16 19----29.59- 57.7-----
0321 2:48 pm S 15 23----29.59- 57.7-----
0321 2:42 pmSSE 21 27----29.59- 58.3-----
0321 2:36 pmSSE 17 26----29.59- 58.3-----
0321 2:30 pmSSE 19 25----29.59- 57.7-----
0321 2:24 pm SE 22 28----29.59- 57.0-----
0321 2:18 pm SE 25 30----29.60- 57.2-----
0321 2:12 pmESE 25 33----29.60- 57.2-----
0321 2:06 pm SE 27 34----29.61- 57.2-----
0321 2:00 pmESE 22 26----29.62-0.14 57.0-----
0321 1:54 pmESE 24 27----29.63- 57.4-----
0321 1:48 pmESE 23 26----29.64- 57.4-----
0321 1:42 pmESE 22 29----29.65- 57.4-----
0321 1:36 pm SE 19 25----29.65- 57.6-----
0321 1:30 pm SE 23 28----29.66- 57.4-----
0321 1:24 pm SE 21 36----29.67- 57.4-----
0321 1:18 pm SE 32 36----29.66- 57.9-----
0321 1:12 pm SE 25 33----29.67- 59.5-----
0321 1:06 pm SE 21 27----29.67- 59.7-----
0321 1:00 pm SE 21 30------------
032112:54 pm SE 25 32----29.68- 59.9-----
032112:48 pm SE 26 36----29.68- 60.4-----
032112:42 pmESE 23 29----29.69- 60.3-----
032112:36 pm SE 21 24----29.69- 59.7-----
032112:30 pm SE 21 25----29.70- 59.4-----
032112:24 pm SE 20 27----29.70- 59.4-----
032112:18 pm SE 24 34----29.70- 59.4-----
032112:12 pm SE 24 27----29.70- 59.4-----
032112:06 pmESE 24 28----29.71- 59.4-----
032112:00 pm SE 20 27----29.72-0.12------
032111:54 am SE 18 25----29.73- 58.3-----
032111:48 am SE 21 28----29.73- 58.3-----
032111:42 am SE 26 30----29.73- 58.5-----
032111:36 am SE 19 26----29.74- 57.9-----
032111:30 am SE 22 29----29.75- 58.1-----
032111:24 am SE 20 30----29.75- 57.9-----
032111:18 amESE 27 31----29.74- 58.5-----
032111:12 amESE 20 25----29.75- 58.3-----
032111:06 amESE 19 22----29.76- 57.9-----
032111:00 amESE 18 21----29.77-0.11 54.1-----
032110:54 am E 19 23----29.77- 53.4-----
032110:48 am E 19 23----29.78- 53.4-----
032110:42 amESE 21 27----29.78- 55.2-----
032110:36 am E 20 23----29.78- 51.3-----
032110:30 am E 18 20------------
032110:24 am E 16 19----29.79- 51.6-----
032110:18 am E 17 19----29.80- 51.8-----
032110:12 am E 18 21----29.80- 52.2-----
032110:06 am E 14 17----29.80- 52.9-----
032110:00 am E 14 16----29.81-0.10 53.6-----
0321 9:54 am E 12 14----29.81- 55.0-----
0321 9:48 amESE 12 15----29.82- 54.0-----
0321 9:42 am E 12 13----29.82- 52.0-----
0321 9:36 am E 12 13----29.82- 51.3-----
0321 9:30 am E 11 12----29.82- 50.9-----
0321 9:24 am E 11 13----29.83- 50.9-----
0321 9:18 am E 12 15----29.83- 51.1-----
0321 9:12 am E 13 16----29.83- 51.8-----
0321 9:06 am E 14 19----29.83- 52.0-----
0321 9:00 am E 18 21----29.84-0.10 52.5-----
0321 8:54 am E 17 21----29.85- 52.5-----
0321 8:48 am E 18 19----29.85- 53.1-----
0321 8:42 am E 17 19----29.85- 53.1-----
0321 8:36 am E 16 22----29.85- 54.0-----
0321 8:30 amESE 19 25----29.86- 54.7-----
0321 8:24 am E 13 16----29.87- 52.0-----
0321 8:18 am E 14 17----29.87- 51.4-----
0321 8:12 am E 15 17----29.87- 51.1-----
0321 8:06 am E 14 17----29.87- 50.9-----
0321 8:00 am E 14 18----29.87-0.08 51.3-----
0321 7:54 am E 14 17----29.88- 51.3-----
0321 7:48 am E 14 16----29.87- 51.3-----
0321 7:42 am E 12 14----29.88- 50.9-----
0321 7:36 am E 12 14----29.88- 51.3-----
0321 7:30 am E 14 15----29.88- 51.6-----
0321 7:24 am E 10 12----29.89- 51.1-----
0321 7:18 am E 7 8----29.90- 50.2-----
0321 7:12 am E 6 7----29.91- 50.2-----
0321 7:06 amENE 5 9----29.91- 49.8-----
0321 7:00 amENE 9 11----29.91-0.06 50.0-----
0321 6:54 am E 11 12----29.90- 50.4-----
0321 6:48 am E 7 10----29.91- 50.0-----
0321 6:42 amNNE 6 11----29.92- 49.8-----
0321 6:36 am NE 11 12----29.91- 49.8-----
0321 6:30 amENE 10 11----29.91- 50.5-----
0321 6:24 am E 9 12----29.93- 49.8-----
0321 6:18 am E 11 13----29.92- 50.2-----
0321 6:12 am E 11 12----29.92- 50.4-----
0321 6:06 am E 10 11----29.93- 50.2-----
0321 6:00 am E 9 11----29.94-0.07 50.2-----
0321 5:54 am E 9 11----29.94- 50.4-----
0321 5:48 am E 10 11----29.94- 50.0-----
0321 5:42 am E 10 11----29.94- 49.8-----
0321 5:36 am E 10 12----29.94- 50.0-----
0321 5:30 am E 10 10----29.94- 50.0-----
0321 5:24 am E 9 10----29.94- 50.2-----
0321 5:18 amENE 8 8----29.94- 50.2-----
0321 5:12 amENE 7 8----29.95- 50.0-----
0321 5:06 amENE 7 7----29.95- 50.0-----
0321 5:00 amENE 6 6----29.95-0.11 50.2-----
0321 4:54 amENE 6 6----29.95- 50.0-----
0321 4:48 amENE 5 6----29.96- 50.4-----
0321 4:42 am E 5 6----29.96- 50.5-----
0321 4:36 am E 5 6----29.96- 50.4-----
0321 4:30 am E 5 5----29.96- 50.2-----
0321 4:24 am E 4 5----29.96- 50.2-----
0321 4:18 am E 5 6----29.96- 50.2-----
0321 4:12 am E 5 6----29.96- 50.0-----
0321 4:06 am E 6 7----29.96- 49.8-----
0321 4:00 am E 6 7----29.96-0.12------
0321 3:54 am E 7 8----29.97- 49.3-----
0321 3:48 am E 7 9----29.97- 49.3-----
0321 3:42 am E 7 9----29.98- 49.5-----
0321 3:36 am E 7 8----29.98- 49.3-----
0321 3:30 am E 7 8----29.98- 48.9-----
0321 3:24 am E 7 8----29.99- 48.7-----
0321 3:18 am E 7 8----29.99- 48.4-----
0321 3:12 amENE 6 6----30.00- 48.2-----
0321 3:06 amENE 5 6----30.00- 48.2-----
0321 3:00 amENE 5 6----30.01-0.11 48.2-----
0321 2:54 amENE 6 7----30.01- 48.2-----
0321 2:48 amENE 5 6----30.02- 48.0-----
0321 2:42 amENE 5 6----30.02- 48.0-----
0321 2:36 amENE 5 8----30.03- 48.0-----
0321 2:30 amENE 5 6----30.04- 48.0-----
0321 2:24 am E 6 7----30.04- 48.0-----
0321 2:18 am E 6 8----30.04- 48.0-----
0321 2:12 amENE 7 9----30.05- 48.0-----
0321 2:06 amENE 7 8----30.05- 48.0-----
0321 2:00 amENE 7 8----30.06-0.08 48.0-----
0321 1:54 amENE 7 8----30.06- 48.2-----
0321 1:48 amENE 7 10----30.06- 48.2-----
0321 1:42 amENE 10 12----30.06- 48.4-----
0321 1:36 amENE 11 12----30.06- 48.4-----
0321 1:30 amENE 8 9----30.07-------
0321 1:24 am NE 7 9----30.08- 48.2-----
0321 1:18 amENE 8 9----30.08- 48.2-----
0321 1:12 am NE 9 11----30.09- 48.2-----
0321 1:06 am NE 10 10----30.08- 48.2-----
0321 1:00 am NE 9 11----30.09-0.07 48.0-----
032112:54 am NE 10 11----30.09- 48.0-----
032112:48 amNNE 10 11----30.09- 47.8-----
032112:42 amNNE 10 12----30.10- 47.8-----
032112:36 amNNE 10 13----30.10- 47.8-----
032112:30 amNNE 11 13----30.10- 47.8-----
032112:24 amNNE 10 11----30.10- 47.7-----
032112:18 amNNE 10 11----30.11- 47.7-----
032112:12 amNNE 10 11----30.11- 47.5-----
032112:06 amNNE 10 10----30.11- 47.3-----
032112:00 am NE 9 9----30.11- 47.3-----
032011:54 pmNNE 7 10----30.12- 47.3-----
032011:48 pmNNE 9 9----30.12- 47.3-----
032011:42 pm NE 8 9----30.12- 47.1-----
032011:36 pm NE 8 10----30.12- 47.1-----
032011:30 pm NE 8 11----30.12- 47.1-----
032011:24 pm NE 9 10----30.12- 46.9-----
032011:18 pmENE 8 10----30.13- 47.1-----
032011:12 pmENE 8 10----30.13- 47.1-----
032011:06 pm NE 8 10----30.13- 47.1-----
032011:00 pm NE 9 10----30.14-0.04 47.1-----
032010:54 pm NE 9 11----30.14- 47.1-----
032010:48 pmNNE 10 11----30.14- 47.1-----
032010:42 pm NE 10 11----30.14- 47.1-----
032010:36 pmNNE 9 11----30.15- 47.1-----
032010:30 pmNNE 9 11----30.15- 47.1-----
032010:24 pmNNE 9 12----30.15- 47.1-----
032010:18 pmNNE 11 13----30.15- 46.9-----
032010:12 pmNNE 12 13----30.15- 46.9-----
032010:06 pmNNE 12 13----30.15- 46.9-----
032010:00 pmNNE 12 14----30.16-0.02 46.9-----
0320 9:54 pmNNE 12 14----30.16- 46.9-----
0320 9:48 pmNNE 12 13----30.16- 46.8-----
0320 9:42 pmNNE 13 15----30.16- 46.9-----
0320 9:36 pmNNE 14 16----30.16- 46.8-----
0320 9:30 pmNNE 15 16----30.16- 46.8-----
0320 9:24 pmNNE 13 14----30.16- 46.8-----
0320 9:18 pmNNE 12 14----30.16- 46.8-----
0320 9:12 pmNNE 13 14----30.16- 46.8-----
0320 9:06 pmNNE 12 15----30.16- 46.8-----
0320 9:00 pmNNE 14 15------------
0320 8:54 pmNNE 14 15----30.17- 46.8-----

Description of Measurements

Links which are specific to this station are listed below:

Real Time Data in tabular form for the last forty-five days.

Historical Data & Climatic Summaries for quality controlled data for the current month, previous months, and previous years.